RYL108 RPVE-RPLL

Flight info

Callsign RYL108
Flight time 0h 36m
Altitude 24000
Route MINOR8A MINOR B473 LAIYA LAIYA3R
Aircraft A320/M-SDE3FGHIRWY/LB1

Departure

Time 2026-05-01 13:27
Airport Godofredo P. Ramos Airport (RPVE)

Arrival

Time 2026-05-01 14:03
Airport Ninoy Aquino International Airport (RPLL)
Time Latitude Longitude Altitude Speed Heading
2026-05-01 13:15 11.92575 121.96273 27 ft 0 kts 63°
2026-05-01 13:21 11.92574 121.96271 26 ft 3 kts 62°
2026-05-01 13:21 11.92559 121.96250 26 ft 4 kts 29°
2026-05-01 13:21 11.92535 121.96245 26 ft 4 kts 339°
2026-05-01 13:22 11.92526 121.96250 26 ft 1 kts 333°
2026-05-01 13:23 11.92535 121.96245 26 ft 5 kts 333°
2026-05-01 13:24 11.92598 121.96215 26 ft 14 kts 337°
2026-05-01 13:24 11.92695 121.96178 26 ft 16 kts 330°
2026-05-01 13:24 11.92792 121.96110 26 ft 15 kts 289°
2026-05-01 13:25 11.92685 121.95852 26 ft 30 kts 243°
2026-05-01 13:25 11.92587 121.95656 29 ft 32 kts 243°
2026-05-01 13:25 11.92480 121.95444 24 ft 35 kts 243°
2026-05-01 13:25 11.92368 121.95223 26 ft 36 kts 243°
2026-05-01 13:26 11.92250 121.95037 27 ft 16 kts 219°
2026-05-01 13:26 11.92266 121.95022 27 ft 7 kts 51°
2026-05-01 13:26 11.92379 121.95246 24 ft 74 kts 63°
2026-05-01 13:26 11.92717 121.95917 29 ft 135 kts 63°
2026-05-01 13:27 11.93167 121.96837 468 ft 146 kts 63°
2026-05-01 13:27 11.93626 121.97758 1125 ft 144 kts 63°
2026-05-01 13:27 11.94546 121.99574 2103 ft 155 kts 63°
2026-05-01 13:28 11.95679 122.01831 2553 ft 202 kts 63°
2026-05-01 13:28 11.96585 122.03006 2974 ft 222 kts 39°
2026-05-01 13:29 11.99574 122.04616 4102 ft 257 kts 28°
2026-05-01 13:29 12.03172 122.06120 5087 ft 300 kts
2026-05-01 13:30 12.11098 122.02621 8081 ft 328 kts 338°
2026-05-01 13:31 12.15376 122.00842 9574 ft 336 kts 342°
2026-05-01 13:31 12.22035 121.98180 11517 ft 348 kts 340°
2026-05-01 13:32 12.26549 121.96245 12790 ft 354 kts 339°
2026-05-01 13:33 12.33452 121.93239 14555 ft 364 kts 339°
2026-05-01 13:33 12.38162 121.91192 15620 ft 371 kts 339°
2026-05-01 13:34 12.42957 121.89122 16678 ft 377 kts 340°
2026-05-01 13:34 12.47841 121.87016 17722 ft 384 kts 340°
2026-05-01 13:35 12.52785 121.84875 18673 ft 391 kts 339°
2026-05-01 13:35 12.55304 121.83784 19135 ft 394 kts 339°
2026-05-01 13:35 12.60385 121.81587 20103 ft 399 kts 339°
2026-05-01 13:36 12.62955 121.80472 20585 ft 401 kts 339°
2026-05-01 13:36 12.65530 121.79355 21069 ft 403 kts 339°
2026-05-01 13:36 12.70706 121.77106 22009 ft 409 kts 338°
2026-05-01 13:37 12.73334 121.75966 22470 ft 412 kts 338°
2026-05-01 13:37 12.75976 121.74820 22989 ft 413 kts 338°
2026-05-01 13:37 12.78634 121.73669 23481 ft 415 kts 338°
2026-05-01 13:37 12.81314 121.72508 23810 ft 417 kts 338°
2026-05-01 13:38 12.86611 121.70207 23945 ft 402 kts 337°
2026-05-01 13:38 12.89209 121.69076 23950 ft 414 kts 338°
2026-05-01 13:38 12.91912 121.67899 23950 ft 428 kts 337°
2026-05-01 13:39 12.94695 121.66689 23950 ft 441 kts 338°
2026-05-01 13:39 12.97517 121.65462 23945 ft 452 kts 337°
2026-05-01 13:39 13.00486 121.64172 23945 ft 461 kts 337°
2026-05-01 13:39 13.03428 121.62894 23953 ft 469 kts 338°
2026-05-01 13:40 13.06460 121.61577 23953 ft 477 kts 337°
2026-05-01 13:40 13.09537 121.60237 23953 ft 483 kts 337°
2026-05-01 13:40 13.12647 121.58880 23953 ft 488 kts 337°
2026-05-01 13:40 13.15723 121.57543 23946 ft 467 kts 337°
2026-05-01 13:41 13.18641 121.56273 23949 ft 445 kts 337°
2026-05-01 13:41 13.21428 121.55058 23952 ft 425 kts 337°
2026-05-01 13:41 13.24101 121.53893 23952 ft 409 kts 337°
2026-05-01 13:41 13.26687 121.52765 23952 ft 398 kts 337°
2026-05-01 13:42 13.29205 121.51670 23960 ft 396 kts 338°
2026-05-01 13:42 13.31741 121.50567 23955 ft 395 kts 338°
2026-05-01 13:42 13.34275 121.49462 23956 ft 395 kts 338°
2026-05-01 13:42 13.36801 121.48358 23953 ft 395 kts 338°
2026-05-01 13:43 13.39302 121.47266 23759 ft 387 kts 338°
2026-05-01 13:43 13.41759 121.46192 23539 ft 380 kts 338°
2026-05-01 13:43 13.44169 121.45143 23281 ft 374 kts 338°
2026-05-01 13:43 13.46561 121.44103 23026 ft 372 kts 338°
2026-05-01 13:44 13.48933 121.43069 22735 ft 367 kts 338°
2026-05-01 13:44 13.50487 121.42391 22459 ft 366 kts 338°
2026-05-01 13:44 13.53599 121.41062 22184 ft 355 kts 340°
2026-05-01 13:44 13.55104 121.40449 22136 ft 347 kts 340°
2026-05-01 13:45 13.57323 121.39568 22006 ft 338 kts 341°
2026-05-01 13:45 13.59562 121.38690 21187 ft 351 kts 341°
2026-05-01 13:45 13.61866 121.37788 20647 ft 356 kts 341°
2026-05-01 13:45 13.64177 121.36879 20227 ft 355 kts 341°
2026-05-01 13:46 13.66478 121.35968 19849 ft 354 kts 341°
2026-05-01 13:46 13.68770 121.35057 19496 ft 352 kts 341°
2026-05-01 13:46 13.71049 121.34148 19138 ft 350 kts 341°
2026-05-01 13:46 13.73316 121.33241 18805 ft 349 kts 341°
2026-05-01 13:47 13.75570 121.32337 18463 ft 347 kts 341°
2026-05-01 13:47 13.77814 121.31435 18100 ft 345 kts 341°
2026-05-01 13:47 13.80051 121.30539 17719 ft 344 kts 341°
2026-05-01 13:47 13.82272 121.29652 17342 ft 341 kts 341°
2026-05-01 13:48 13.84481 121.28771 16982 ft 339 kts 341°
2026-05-01 13:48 13.86675 121.27894 16625 ft 337 kts 341°
2026-05-01 13:48 13.88851 121.27022 16279 ft 335 kts 341°
2026-05-01 13:48 13.91020 121.26152 15985 ft 332 kts 341°
2026-05-01 13:49 13.93175 121.25290 15674 ft 331 kts 341°
2026-05-01 13:49 13.95318 121.24437 15340 ft 329 kts 342°
2026-05-01 13:49 13.97423 121.23597 14988 ft 328 kts 341°
2026-05-01 13:49 13.99540 121.22749 14660 ft 326 kts 341°
2026-05-01 13:50 14.01648 121.21905 14305 ft 324 kts 341°
2026-05-01 13:50 14.03748 121.21064 13993 ft 322 kts 341°
2026-05-01 13:50 14.05830 121.20229 13674 ft 320 kts 342°
2026-05-01 13:50 14.07905 121.19397 13321 ft 318 kts 342°
2026-05-01 13:51 14.09963 121.18574 12956 ft 317 kts 341°
2026-05-01 13:51 14.12011 121.17755 12620 ft 315 kts 342°
2026-05-01 13:51 14.14036 121.16891 12290 ft 315 kts 334°
2026-05-01 13:51 14.15765 121.15505 11862 ft 318 kts 319°
2026-05-01 13:52 14.17309 121.13904 11519 ft 318 kts 317°
2026-05-01 13:52 14.18840 121.12272 11189 ft 316 kts 317°
2026-05-01 13:52 14.20360 121.10643 10870 ft 314 kts 317°
2026-05-01 13:52 14.21870 121.09022 10559 ft 312 kts 317°
2026-05-01 13:53 14.23370 121.07413 10260 ft 310 kts 317°
2026-05-01 13:53 14.26196 121.04144 9683 ft 308 kts 301°
2026-05-01 13:53 14.26834 121.02046 9368 ft 308 kts 275°
2026-05-01 13:54 14.26840 120.99854 8774 ft 305 kts 268°
2026-05-01 13:54 14.26738 120.97677 8137 ft 304 kts 267°
2026-05-01 13:54 14.26623 120.95501 7537 ft 302 kts 267°
2026-05-01 13:54 14.26509 120.93351 6985 ft 299 kts 267°
2026-05-01 13:55 14.26396 120.91217 6417 ft 297 kts 267°
2026-05-01 13:55 14.26287 120.89106 5856 ft 293 kts 267°
2026-05-01 13:55 14.26179 120.87018 5298 ft 290 kts 267°
2026-05-01 13:55 14.26071 120.84949 4742 ft 287 kts 270°
2026-05-01 13:56 14.26452 120.82960 4265 ft 284 kts 293°
2026-05-01 13:56 14.27253 120.81106 3965 ft 282 kts 297°
2026-05-01 13:56 14.28144 120.79311 3708 ft 277 kts 306°
2026-05-01 13:56 14.29451 120.77934 3586 ft 263 kts 329°
2026-05-01 13:57 14.31049 120.77199 3466 ft 249 kts 351°
2026-05-01 13:57 14.32720 120.77109 3345 ft 234 kts 11°
2026-05-01 13:57 14.34222 120.77576 3233 ft 220 kts 31°
2026-05-01 13:57 14.35455 120.78433 3126 ft 211 kts 40°
2026-05-01 13:58 14.36623 120.79342 3036 ft 210 kts 40°
2026-05-01 13:58 14.37792 120.80245 3021 ft 210 kts 40°
2026-05-01 13:58 14.38977 120.81164 3020 ft 215 kts 42°
2026-05-01 13:58 14.39941 120.82315 3015 ft 208 kts 63°
2026-05-01 13:59 14.40638 120.83563 3015 ft 194 kts 63°
2026-05-01 13:59 14.41291 120.84741 3052 ft 191 kts 62°
2026-05-01 13:59 14.41952 120.85932 2926 ft 191 kts 62°
2026-05-01 13:59 14.42612 120.87117 2719 ft 190 kts 63°
2026-05-01 14:00 14.43267 120.88293 2483 ft 188 kts 63°
2026-05-01 14:00 14.43913 120.89455 2249 ft 187 kts 62°
2026-05-01 14:00 14.44553 120.90605 2008 ft 179 kts 62°
2026-05-01 14:00 14.45146 120.91668 1782 ft 163 kts 63°
2026-05-01 14:01 14.45684 120.92634 1598 ft 149 kts 63°
2026-05-01 14:01 14.46183 120.93532 1397 ft 141 kts 63°
2026-05-01 14:01 14.46667 120.94402 1218 ft 139 kts 63°
2026-05-01 14:01 14.47143 120.95252 1030 ft 139 kts 64°
2026-05-01 14:02 14.47631 120.96111 857 ft 139 kts 63°
2026-05-01 14:02 14.48108 120.96984 727 ft 141 kts 63°
2026-05-01 14:02 14.48591 120.97852 577 ft 139 kts 63°
2026-05-01 14:02 14.49073 120.98730 403 ft 142 kts 63°
2026-05-01 14:03 14.49564 120.99612 222 ft 142 kts 62°
2026-05-01 14:03 14.50048 121.00481 60 ft 130 kts 62°
2026-05-01 14:03 14.50423 121.01154 68 ft 84 kts 60°
2026-05-01 14:03 14.50627 121.01522 66 ft 36 kts 60°
2026-05-01 14:04 14.50757 121.01710 62 ft 28 kts 39°
2026-05-01 14:04 14.50878 121.01786 60 ft 13 kts 352°
2026-05-01 14:04 14.50892 121.01726 61 ft 7 kts 247°
2026-05-01 14:04 14.50881 121.01692 64 ft 8 kts 266°
2026-05-01 14:05 14.50961 121.01597 64 ft 16 kts 314°
2026-05-01 14:05 14.51045 121.01509 68 ft 18 kts 315°
2026-05-01 14:05 14.51104 121.01407 64 ft 14 kts 255°
2026-05-01 14:05 14.51068 121.01362 66 ft 2 kts 220°
2026-05-01 14:06 14.51066 121.01361 67 ft 0 kts 220°